Regional Weather Roundup
Issued by NWS Jackson, KY

Home | Current Version | Previous Version | Graphics & Text | Print | Product List | Glossary On
Versions: 1 2 3 4 5 6 7 8 9 10 11 12 13 14 15 16 17 18 19 20 21 22 23 24 25 26 27 28 29 30 31 32 33 34 35 36 37 38 39 40 41 42 43 44 45 46 47 48 49 50
407
ASUS43 KJKL 260610
RWRJKL

EAST KENTUCKY HOURLY WEATHER ROUNDUP
NATIONAL WEATHER SERVICE JACKSON KY
100 AM EST SUN FEB 26 2017

NOTE: "FAIR" INDICATES FEW OR NO CLOUDS BELOW 12,000 FEET WITH
NO SIGNIFICANT WEATHER AND/OR OBSTRUCTIONS TO VISIBILITY.

* THESE REPORTS ARE NOT UNDER NWS QUALITY CONTROL AND MAY NOT
  REPORT WEATHER SUCH AS PRECIPITATION AND FOG.

KYZ079-080-083-085-087-088-110-112-115-119-120-260700
...EASTERN KENTUCKY...

CITY           SKY/WX    TMP DP  RH WIND       PRES   REMARKS
JACKSON        CLOUDY    30  19  63 SW5       30.08S WCI  25
6HR MIN TEMP:  30; 6HR MAX TEMP:  34;

LONDON         CLEAR     28  21  75 CALM      30.11S
6HR MIN TEMP:  27; 6HR MAX TEMP:  36;

SOMERSET*      CLEAR     27  23  86 CALM      30.14S
MONTICELLO*    CLEAR     19  16  88 MISG      30.15S
6HR MIN TEMP:  19; 6HR MAX TEMP:  34;

WILLIAMSBURG*  CLEAR     27  27 100 CALM      30.12S
MIDDLESBORO*   CLEAR     29  23  80 CALM      30.12S
6HR MIN TEMP:  29; 6HR MAX TEMP:  40;

HARLAN APT*    PTCLDY    30  19  64 CALM      30.09S
PIKE CO APT*   CLOUDY    30  19  62 SW5       30.07S WCI  25
BIG SANDY APT* CLOUDY    32  19  58 W5        30.08S WCI  28
6HR MIN TEMP:  32; 6HR MAX TEMP:  36;

MOREHEAD APT*  CLOUDY    30  19  64 W5        30.11S WCI  25
ASHLAND*       CLOUDY    32  18  55 W7        30.09S WCI  26
$$

KYZ035-036-041-042-044-050-067-078-099-260700
...CENTRAL KENTUCKY...

CITY           SKY/WX    TMP DP  RH WIND       PRES   REMARKS
FLEMING/MASON* CLEAR     26  20  77 SW7       30.10S WCI  18
DANVILLE*      PTCLDY    28  19  69 SW3       30.12S
LEXINGTON      CLEAR     27  18  69 S6        30.10S WCI  20
6HR MIN TEMP:  27; 6HR MAX TEMP:  34;

FRANKFORT      CLEAR     26  17  68 SW5       30.09S WCI  20
6HR MIN TEMP:  26; 6HR MAX TEMP:  35;

LOUISVILLE     CLEAR     30  16  56 W8        30.13R WCI  22
6HR MIN TEMP:  30; 6HR MAX TEMP:  37;

LEBANON*         N/A     28  18  64 S3        30.12S
GLASGOW*       CLEAR     26  23  86 CALM      30.15R
BOWLING GREEN  CLEAR     30  19  63 CALM      30.16R
6HR MIN TEMP:  30; 6HR MAX TEMP:  40;

$$

KYZ091>093-OHZ055-061-077-WVZ005-015-034-035-042-260700
...SOUTHERN OHIO/WEST VIRGINIA...

CITY           SKY/WX    TMP DP  RH WIND       PRES   REMARKS
COVINGTON      CLEAR     27  17  66 SW5       30.06S WCI  22
COLUMBUS       FLURRIES  32  18  56 W9        30.04R WCI  24
DAYTON         MOCLDY    27  17  66 W13       30.05R WCI  16
WILMINGTON     CLEAR     26  17  68 SW9       30.04S WCI  17
HUNTINGTON     CLOUDY    32  19  58 W7        30.09R WCI  26
CHARLESTON     CLOUDY    33  15  47 W8        30.07S WCI  26
PINEVILLE*       N/A     32  18  55 MISG      30.08S
BECKLEY        CLOUDY    27  15  61 NW22G29   29.98F WCI  13
BLUEFIELD      CLOUDY    25  15  66 NW16G28   29.96S WCI  12
LOGAN CO APT*  CLOUDY    30  19  64 VRB5      30.05S WCI  25
$$

VAZ002-007-008-TNZ017-027-036-066-071-260700
...SOUTHWEST VIRGINIA/EAST TENNESSEE...

CITY           SKY/WX    TMP DP  RH WIND       PRES   REMARKS
WISE*          PTCLDY    28  19  69 CALM      30.03S
JONESVILLE*      N/A     32  23  69 CALM      30.11F
ABINGDON*      CLEAR     32  19  58 NW6       30.04R WCI  27
BRISTOL        CLEAR     33  18  53 W7        30.08R WCI  27
MORRISTOWN*    PTCLDY    34  21  60 NW5       30.08F WCI  30
SEVIERVILLE*   CLEAR     34  19  55 NW3       30.10S
KNOXVILLE      CLEAR     36  21  54 N5        30.10S WCI  32
LAFOLLETTE*    CLEAR     28  23  80 CALM      30.14S
OAK RIDGE      CLEAR     35  19  52 VRB3      30.13R
CROSSVILLE     CLEAR     29  18  63 NW3       30.09S
NASHVILLE      CLEAR     35  19  52 W3        30.16S
$$

...KEY TO REMARKS...
VSB - VISIBILITY IN MILES
WCI - WIND CHILL INDEX
HX  - HEAT INDEX

$$




USA.gov is the U.S. government's official web portal to all federal, state and local government web resources and services.